Location: Kmicica-DOM
(53.1202°N, 23.2052°E)
Time: 02:38:58
(UTC+02:00)

USA 276 - Pass Details

Date: 17 August 2022
Orbit: 366 x 369 km, 50.0° (Epoch: 12 July)

Event Time Altitude Azimuth Distance (km) Brightness Sun altitude
Exits shadow 04:11:07 12° 252° (WSW) 1,262 4.1 -8.6°
Maximum altitude 04:13:48 46° 179° (S) 500 2.4 -8.3°
Drops below altitude 10° 04:16:43 10° 105° (ESE) 1,348 5.4 -7.9°
Sets 04:18:47 0° 99° (E) 2,195 6.7 -7.6°
